Flag for Germany Weather past 2 weeks in Weimar, Thuringia, Germany

Now
36 °F

Fog.


Feels Like: 30 °F
Forecast: 44 / 62 °F
Wind: 7 mph from Northeast

Location: Erfurt-Bindersleben


UV Index: 3 (Moderate)

Visibility: 0 mi


Pressure: 29.98 "Hg

Humidity: 100%

Dew point: 36 °F

Location of WeimarLocation

Historic Weather in Weimar

°F

Weimar temperature yesterday

Maximum temperature yesterday: 48 °F (at 12:50 AM)
Minimum temperature yesterday: 39 °F (at 9:20 PM)
Average temperature yesterday: 43 °F

Past Weeks' High & Low Weather Summary

 TemperatureHumidityPressure
High68 °F (Apr 7, 4:20 PM)100% (Apr 5, 1:20 AM)30.42 "Hg (Apr 5, 1:20 AM)
Low30 °F (Apr 17, 6:50 AM)31% (Apr 17, 4:50 PM)29.74 "Hg (Apr 4, 4:20 AM)
Average48 °F75%30.04 "Hg
* Reported Apr 4 4:20 AM — Apr 19 4:20 AM, Weimar, Weather by CustomWeather, © 2014

Note: Actual official high and low records may vary slightly from our data, if they occured in-between our weather recording intervals... More about our weather records

Advertising

Historic Weather Conditions — Data for Previous 24 hours

 ConditionsComfort  
Time TempWeatherWind HumidityBarometerVisibility
4:20 AM
Apr 19
36 °FChilly.5 mph100%29.98 "Hg5 mi
3:50 AM37 °FChilly.2 mph100%29.98 "HgN/A
3:20 AM37 °FChilly.2 mph100%29.98 "Hg4 mi
2:50 AM37 °FPassing clouds.1 mph93%29.98 "HgN/A
2:20 AM37 °FFog.3 mph93%29.98 "HgN/A
1:50 AM36 °FFog.1 mph100%29.98 "HgN/A
1:20 AM36 °FFog.3 mph100%29.95 "HgN/A
12:50 AM37 °FFog.3 mph93%29.95 "HgN/A
12:20 AM37 °FFog.1 mph100%29.95 "HgN/A
11:50 PM
Apr 18
39 °FPassing clouds.3 mph93%29.95 "HgN/A
11:20 PM39 °FPartly cloudy.3 mph93%29.95 "HgN/A
10:50 PM39 °FPassing clouds.2 mph93%29.92 "HgN/A
10:20 PM39 °FPassing clouds.3 mph87%29.92 "HgN/A
9:50 PM39 °FPassing clouds.3 mph93%29.92 "HgN/A
9:20 PM39 °FPassing clouds.5 mph93%29.92 "HgN/A
8:50 PM41 °FBroken clouds.5 mph93%29.92 "HgN/A
8:20 PM41 °FBroken clouds.5 mph93%29.89 "HgN/A
7:50 PM41 °FBroken clouds.3 mph93%29.89 "HgN/A
7:20 PM43 °FScattered clouds.1 mph81%29.89 "HgN/A
6:50 PM41 °FSprinkles. Partly sunny.6 mph93%29.89 "HgN/A
6:20 PM41 °FSprinkles. Broken clouds.14 mph93%29.89 "HgN/A
5:50 PM46 °FThunderstorms. Scattered clouds.18 mph71%29.86 "HgN/A
5:20 PM48 °FScattered clouds.9 mph71%29.83 "HgN/A
4:50 PM46 °FScattered clouds.8 mph71%29.86 "HgN/A
4:20 PM45 °FScattered clouds.10 mph81%29.86 "HgN/A
3:20 PM41 °FSprinkles. Partly sunny.21 mph87%29.86 "HgN/A
2:50 PM45 °FSprinkles. Scattered clouds.9 mph81%29.83 "HgN/A
2:20 PM48 °FScattered showers. Scattered clouds.15 mph76%29.83 "HgN/A
1:50 PM45 °FSprinkles. Scattered clouds.15 mph76%29.83 "HgN/A
1:20 PM43 °FSprinkles. Partly sunny.10 mph87%29.83 "HgN/A
12:50 PM48 °FScattered showers. Partly sunny.13 mph66%29.83 "HgN/A
12:20 PM45 °FSprinkles. Partly sunny.13 mph71%29.83 "HgN/A
11:50 AM45 °FScattered showers. Scattered clouds.12 mph81%29.83 "HgN/A
11:20 AM45 °FScattered clouds.9 mph81%29.83 "HgN/A
10:50 AM43 °FScattered showers. Partly sunny.12 mph81%29.83 "HgN/A
10:20 AM45 °FSprinkles. Broken clouds.7 mph81%29.83 "HgN/A
9:50 AM41 °FSprinkles. Broken clouds.7 mph93%29.83 "HgN/A
9:20 AM41 °FBroken clouds.7 mph87%29.83 "HgN/A
8:50 AM41 °FLight rain. Broken clouds.5 mph87%29.83 "HgN/A
8:20 AM41 °FLight rain. Broken clouds.10 mph87%29.83 "HgN/A
7:50 AM41 °FLight rain. Partly sunny.10 mph93%29.80 "HgN/A
7:20 AM41 °FLight rain. Partly sunny.10 mph93%29.80 "HgN/A
6:50 AM41 °FLight rain. Passing clouds.13 mph93%29.80 "HgN/A
6:20 AM43 °FLight rain. Passing clouds.10 mph93%29.77 "HgN/A
5:50 AM43 °FLight rain. Passing clouds.8 mph93%29.77 "HgN/A
5:20 AM43 °FLight rain. Partly cloudy.10 mph87%29.77 "HgN/A
Weather by CustomWeather, © 2014

See weather overview